If you wish to contribute or participate in the discussions about articles you are invited to join SKYbrary as a registered user

 Actions

Fairbanks International

From SKYbrary Wiki

PAFA
Airport
ICAO: PAFA
Summary
Name Fairbanks International
Region North America
Territory Alaska US.gif
Location Fairbanks
Serving
Coordinates 64° 49' 11.98" N, 147° 51' 51.59" W
Runways
Designator Length Width Surface ROPS
2/20 884 m2,900.262 ft <br /> 23 m75.459 ft <br /> GRVL yes/yes
02L/20R 3597 m11,801.181 ft <br /> 46 m150.919 ft <br /> ASPH-G yes/yes
02R/20L 1982 m6,502.625 ft <br /> 30 m98.425 ft <br /> ASPH-G yes/yes
02W/20W 1646 m5,400.262 ft <br /> 30 m98.425 ft <br /> WATER /


METAR
Observation PAFA 170653Z 00000KT 10SM CLR 00/M04 A3056 RMK AO2 SLP359 T00001044
Station Fairbanks, Fairbanks International Airport
Date/Time 17 April 2021 06:53:00
Wind direction
Wind speed 00 kts
Lowest cloud amount n/a
Temperature 0°C
Dew point
Humidity 72%
QNH hPa
Weather condition n/a

BS
Tag(s) Bird Strike
CFIT
Tag(s) Altimeter Temperature Error Correction

Fairbanks International Airport

ICAO: PAFA IATA: FAI

Description

International airport serving Fairbanks, Alaska.

Climatology

Subarctic climate (Köppen climate classification Dfc) - long, usually very cold winters, and short, cool to mild summers.

Maps

Terrain

Loading map...

Airport Layout

Loading map...


Accidents & Serious Incidents at or in vicinity of PAFA

None on SKYbrary